Date String (YYYY-MM-DD hh:mm:ss) UTC,Instrument flags,Ambient pressure (hPa),Sample flow (lpm),Bypass flow (lpm),Sample temperature (°C),Ambient temperature (°C),ASC tube jacket temperature (°C),LED temperature (°C),Box temperature (°C),Sample RH (%),Span deviation,Mass concentration (μg/m³),Mass concentration (μg/m³),Mass concentration (μg/m³)
DateTimeUTC,F1_M11,P_M11,Q1_M11,Q2_M11,T1_M11,T2_M11,T3_M11,T4_M11,T5_M11,U1_M11,ZSPAN_M11,X0_M11,X2_M11,X1_M11
2021-10-23 12:00:00,,0819.5,5.00,0.00,27.0,26.3,00.0,36.0,28.7,08.1,0000.0,0003.43,0001.60,0000.94
2021-10-23 12:01:00,,0819.4,5.00,0.00,27.0,26.3,00.0,36.0,28.8,08.2,0000.0,0003.24,0001.56,0000.94
2021-10-23 12:02:00,,0819.4,5.01,0.00,27.0,26.3,00.0,36.0,28.7,08.2,0000.0,0003.04,0001.54,0000.95
2021-10-23 12:03:00,,0819.3,5.02,0.00,27.0,26.3,00.0,36.0,28.7,08.1,0000.0,0002.97,0001.54,0000.96
2021-10-23 12:04:00,,0819.3,5.00,0.00,27.0,26.3,00.0,36.0,28.7,07.6,0000.0,0002.88,0001.53,0000.96
2021-10-23 12:05:00,,0819.2,4.99,0.00,27.0,26.3,00.0,36.1,28.7,07.7,0000.0,0002.50,0001.44,0000.95
2021-10-23 12:06:00,,0819.1,5.00,0.00,27.0,26.3,00.0,36.1,28.8,07.8,0000.0,0002.57,0001.44,0000.95
2021-10-23 12:07:00,,0819.1,5.02,0.00,27.0,26.3,00.0,36.1,28.8,08.0,0000.0,0002.55,0001.43,0000.96
2021-10-23 12:08:00,,0819.1,5.00,0.00,27.0,26.3,00.0,36.1,28.7,08.0,0000.0,0003.30,0001.46,0000.96
2021-10-23 12:09:00,,0819.0,5.00,0.00,27.0,26.3,00.0,36.1,28.8,08.0,0000.0,0003.48,0001.42,0000.96
2021-10-23 12:10:00,,0819.1,5.01,0.00,27.0,26.3,00.0,36.1,28.9,07.9,0000.0,0004.36,0001.45,0000.96
2021-10-23 12:11:00,,0819.4,5.00,0.00,27.0,26.3,00.0,36.1,28.9,07.4,0000.0,0006.61,0001.48,0000.95
2021-10-23 12:12:00,,0819.3,4.99,0.00,27.0,26.2,00.0,36.1,28.8,07.6,0000.0,0006.64,0001.48,0000.94
2021-10-23 12:13:00,,0819.2,5.01,0.00,27.0,26.2,00.0,36.1,28.8,07.5,0000.0,0006.61,0001.47,0000.94
2021-10-23 12:14:00,,0819.2,4.99,0.00,27.0,26.2,00.0,36.1,28.7,07.4,0000.0,0006.48,0001.42,0000.93
2021-10-23 12:15:00,,0819.3,5.01,0.00,27.0,26.3,00.0,36.1,28.8,07.5,0000.0,0007.11,0001.41,0000.93
2021-10-23 12:16:00,,0819.3,4.98,0.00,27.1,26.3,00.0,36.1,28.9,07.6,0000.0,0007.26,0001.43,0000.93
2021-10-23 12:17:00,,0819.4,5.01,0.00,27.1,26.3,00.0,36.1,28.8,07.7,0000.0,0007.22,0001.44,0000.92
2021-10-23 12:18:00,,0819.4,4.99,0.00,27.1,26.2,00.0,36.1,28.8,07.8,0000.0,0007.37,0001.43,0000.92
2021-10-23 12:19:00,,0819.4,5.01,0.00,27.1,26.2,00.0,36.1,28.8,07.7,0000.0,0006.87,0001.40,0000.92
2021-10-23 12:20:00,,0819.4,5.00,0.00,27.1,26.2,00.0,36.1,28.8,07.6,0000.0,0006.81,0001.44,0000.93
2021-10-23 12:21:00,,0819.5,5.00,0.00,27.1,26.2,00.0,36.1,28.8,07.6,0000.0,0005.95,0001.40,0000.93
2021-10-23 12:22:00,,0819.4,5.01,0.00,27.1,26.2,00.0,36.1,28.8,08.4,0000.0,0003.87,0001.42,0000.96
2021-10-23 12:23:00,,0819.4,4.99,0.00,27.1,26.3,00.0,36.2,28.9,08.2,0000.0,0005.35,0001.52,0001.03
2021-10-23 12:24:00,,0819.5,5.01,0.00,27.1,26.3,00.0,36.2,28.9,08.5,0000.0,0007.03,0001.62,0001.07
2021-10-23 12:25:00,,0819.4,5.00,0.00,27.1,26.3,00.0,36.2,28.9,08.5,0000.0,0007.35,0001.79,0001.15
2021-10-23 12:26:00,,0819.4,4.99,0.00,27.1,26.4,00.0,36.2,29.0,08.6,0000.0,0007.12,0001.95,0001.22
2021-10-23 12:27:00,,0819.5,5.00,0.00,27.2,26.4,00.0,36.2,29.0,08.5,0000.0,0007.43,0002.10,0001.30
2021-10-23 12:28:00,,0819.6,5.01,0.00,27.2,26.4,00.0,36.2,29.0,08.4,0000.0,0007.73,0002.21,0001.36
2021-10-23 12:29:00,,0819.7,5.01,0.00,27.1,26.4,00.0,36.2,29.0,08.5,0000.0,0008.32,0002.36,0001.43
2021-10-23 12:30:00,,0819.7,5.01,0.00,27.1,26.4,00.0,36.2,28.9,08.7,0000.0,0009.36,0002.44,0001.49
2021-10-23 12:31:00,,0819.6,5.00,0.00,27.1,26.4,00.0,36.2,28.9,09.0,0000.0,0009.93,0002.62,0001.59
2021-10-23 12:32:00,,0819.7,5.00,0.00,27.1,26.4,00.0,36.2,28.9,08.9,0000.0,0010.27,0002.78,0001.69
2021-10-23 12:33:00,,0819.7,5.00,0.00,27.1,26.3,00.0,36.2,28.9,09.0,0000.0,0010.48,0002.96,0001.77
2021-10-23 12:34:00,,0819.7,4.99,0.00,27.1,26.3,00.0,36.2,28.9,09.3,0000.0,0009.98,0003.08,0001.83
2021-10-23 12:35:00,,0819.6,5.00,0.00,27.1,26.3,00.0,36.2,28.9,09.4,0000.0,0010.18,0003.17,0001.91
2021-10-23 12:36:00,,0819.6,5.00,0.00,27.1,26.4,00.0,36.2,28.9,09.1,0000.0,0010.37,0003.22,0001.95
2021-10-23 12:37:00,,0819.6,5.01,0.00,27.1,26.4,00.0,36.2,28.9,09.0,0000.0,0010.48,0003.24,0001.97
2021-10-23 12:38:00,,0819.7,4.99,0.00,27.1,26.4,00.0,36.2,28.9,09.0,0000.0,0010.53,0003.28,0002.02
2021-10-23 12:39:00,,0819.7,5.01,0.00,27.1,26.3,00.0,36.2,28.9,08.4,0000.0,0010.57,0003.29,0002.03
2021-10-23 12:40:00,,0819.7,4.99,0.00,27.1,26.3,00.0,36.2,28.9,08.2,0000.0,0011.44,0003.25,0002.00
2021-10-23 12:41:00,,0819.7,5.02,0.00,27.1,26.3,00.0,36.2,28.8,08.0,0000.0,0010.55,0003.23,0001.95
2021-10-23 12:42:00,,0819.7,5.00,0.00,27.0,26.3,00.0,36.2,28.8,08.1,0000.0,0009.89,0003.16,0001.87
2021-10-23 12:43:00,,0819.7,4.99,0.00,27.0,26.3,00.0,36.2,28.8,08.0,0000.0,0009.58,0003.07,0001.80
2021-10-23 12:44:00,,0819.6,5.01,0.00,27.0,26.3,00.0,36.2,28.8,08.0,0000.0,0009.34,0002.87,0001.71
2021-10-23 12:45:00,,0819.7,4.99,0.00,27.0,26.2,00.0,36.2,28.8,07.9,0000.0,0009.01,0002.68,0001.60
2021-10-23 12:46:00,,0819.6,5.00,0.00,27.0,26.2,00.0,36.2,28.8,07.8,0000.0,0008.12,0002.45,0001.47
2021-10-23 12:47:00,,0819.6,5.00,0.00,27.0,26.3,00.0,36.1,28.8,07.8,0000.0,0008.10,0002.23,0001.37
2021-10-23 12:48:00,,0819.7,5.00,0.00,27.0,26.3,00.0,36.1,28.8,07.8,0000.0,0007.78,0002.03,0001.28
2021-10-23 12:49:00,,0819.6,5.00,0.00,27.0,26.3,00.0,36.1,28.8,07.8,0000.0,0007.86,0001.84,0001.16
2021-10-23 12:50:00,,0819.6,5.01,0.00,27.0,26.3,00.0,36.1,28.8,07.8,0000.0,0007.61,0001.72,0001.10
2021-10-23 12:51:00,,0819.6,5.01,0.00,27.1,26.3,00.0,36.1,28.8,07.8,0000.0,0005.03,0001.66,0001.07
2021-10-23 12:52:00,,0819.6,4.98,0.00,27.1,26.3,00.0,36.1,28.9,07.8,0000.0,0004.75,0001.64,0001.05
2021-10-23 12:53:00,,0819.6,5.01,0.00,27.1,26.3,00.0,36.1,28.9,07.8,0000.0,0004.76,0001.62,0001.02
2021-10-23 12:54:00,,0819.7,5.00,0.00,27.1,26.3,00.0,36.2,28.9,07.8,0000.0,0004.73,0001.60,0001.00
2021-10-23 12:55:00,,0819.7,4.99,0.00,27.1,26.4,00.0,36.2,28.9,07.8,0000.0,0004.59,0001.55,0000.97
2021-10-23 12:56:00,,0819.7,5.00,0.00,27.1,26.4,00.0,36.2,28.9,07.8,0000.0,0004.37,0001.50,0000.95
2021-10-23 12:57:00,,0819.7,5.00,0.00,27.1,26.4,00.0,36.2,28.9,07.8,0000.0,0004.25,0001.47,0000.95
2021-10-23 12:58:00,,0819.7,4.99,0.00,27.1,26.4,00.0,36.2,29.0,08.0,0000.0,0003.64,0001.47,0000.94
2021-10-23 12:59:00,,0819.8,4.99,0.00,27.1,26.4,00.0,36.2,29.0,08.4,0000.0,0004.34,0001.59,0000.97
